This is the latest recevied weather packets stored in our database for station/object K2CAT. If no packets are shown the sender has not sent any weather packets the latest 10 day(s).
| Time | Temp. | Humidity | Pressure | Rain* | Wind** | Luminosity | Snow |
|---|---|---|---|---|---|---|---|
| 1777399218 | 20° C | 39% | 1019.2 hPa | 0 mm | - | 353 W/m² | - |
| 1777398915 | 20° C | 44% | 1019.3 hPa | 0 mm | - | 314 W/m² | - |
| 1777398612 | 20° C | 41% | 1019.3 hPa | 0 mm | - | 358 W/m² | - |
| 1777398308 | 20° C | 41% | 1019.3 hPa | 0 mm | - | 341 W/m² | - |
| 1777398006 | 20° C | 41% | 1019.5 hPa | 0 mm | - | 358 W/m² | - |
| 1777397702 | 20° C | 39% | 1019.5 hPa | 0 mm | - | 365 W/m² | - |
| 1777397397 | 20° C | 41% | 1019.6 hPa | 0 mm | - | 348 W/m² | - |
| 1777397094 | 19.44° C | 40% | 1019.7 hPa | 0 mm | - | 317 W/m² | - |
| 1777396790 | 20° C | 39% | 1019.5 hPa | 0 mm | - | 299 W/m² | - |
| 1777396488 | 20° C | 41% | 1019.7 hPa | 0 mm | - | 287 W/m² | - |
| 1777396185 | 19.44° C | 43% | 1019.8 hPa | 0 mm | - | 282 W/m² | - |
| 1777395880 | 19.44° C | 41% | 1019.9 hPa | 0 mm | - | 276 W/m² | - |
| 1777395576 | 19.44° C | 42% | 1019.9 hPa | 0 mm | - | 281 W/m² | - |
| 1777395272 | 19.44° C | 41% | 1019.9 hPa | 0 mm | - | 286 W/m² | - |
| 1777394970 | 19.44° C | 40% | 1019.9 hPa | 0 mm | - | 298 W/m² | - |
| 1777394667 | 19.44° C | 43% | 1019.8 hPa | 0 mm | - | 292 W/m² | - |
| 1777394363 | 18.89° C | 41% | 1019.9 hPa | 0 mm | - | 273 W/m² | - |
| 1777394060 | 18.89° C | 41% | 1020 hPa | 0 mm | - | 282 W/m² | - |
| 1777393755 | 19.44° C | 39% | 1020.1 hPa | 0 mm | - | 331 W/m² | - |
| 1777393455 | 19.44° C | 41% | 1020.2 hPa | 0 mm | - | 355 W/m² | - |
| 1777393151 | 19.44° C | 40% | 1020.4 hPa | 0 mm | - | 362 W/m² | - |
| 1777392848 | 20° C | 40% | 1020.3 hPa | 0 mm | - | 381 W/m² | - |
| 1777392543 | 20° C | 38% | 1020.3 hPa | 0 mm | - | 416 W/m² | - |
| 1777392239 | 19.44° C | 44% | 1020.5 hPa | 0 mm | - | 450 W/m² | - |
| 1777391934 | 19.44° C | 41% | 1020.6 hPa | 0 mm | - | 458 W/m² | - |
* Rain latest hour (hover to see other rain measurements)
** Current wind speed in m/s (hover to see current wind gust speed)